Tracking 28126 objects as of 2-Oct-2023
HD Live streaming from Space Station
objects crossing your sky now

GUNSMOKE-L

Track GUNSMOKE-L now!
10-day predictions


NORAD ID: 52951
Int'l Code: 2022-074H
Perigee: 408.4 km
Apogee: 421.6 km
Inclination: 45.0 °
Period: 92.7 minutes
Semi major axis: 6786 km
RCS: Unknown
Launch date: July 2, 2022
Source: United States (US)
Launch site: Pegasus launched from Western Range Air Space (WRAS)
Your satellite tracking list
Your tracking list is empty




NASA's NSSDC Master Catalog

Two Line Element Set (TLE):
1 52951U 22074H   23274.03314021  .00102006  00000-0  15777-2 0  9997
2 52951  44.9638 126.4960 0009735 217.5803 142.4410 15.53028808 69951
Source of the keplerian elements: AFSPC